• In Uzbekistan
  • List of Countries
  • For 7 days
  • Water Temperature
  • Satellite Maps
  • Weather Map
  • Weather Widgets
  • user-avatar
    Login

    Hourly Weather Buenos Aires

    Today, 6 December, Tuesday

    Time Temperature Precipitation Wind Pressure Humidity
    00:00 +17°C° 0 mm 3 mps 756 mmHg 76%
    01:00 +16°C° 0 mm 3 mps 756 mmHg 72%
    02:00 +14°C° 0 mm 4 mps 756 mmHg 68%
    03:00 +14°C° 0 mm 4 mps 757 mmHg 65%
    04:00 +13°C° 0 mm 4 mps 757 mmHg 62%
    05:00 +13°C° 0 mm 5 mps 757 mmHg 60%
    06:00 +16°C° 0 mm 5 mps 757 mmHg 48%
    07:00 +21°C° 0 mm 5 mps 757 mmHg 37%
    08:00 +25°C° 0 mm 5 mps 757 mmHg 25%
    09:00 +27°C° 0 mm 5 mps 757 mmHg 22%
    10:00 +29°C° 0 mm 6 mps 757 mmHg 19%
    11:00 +32°C° 0 mm 6 mps 757 mmHg 16%
    12:00 +33°C° 0 mm 6 mps 756 mmHg 15%
    13:00 +34°C° 0 mm 6 mps 756 mmHg 14%
    14:00 +35°C° 0 mm 5 mps 755 mmHg 13%
    15:00 +34°C° 0 mm 5 mps 755 mmHg 13%
    16:00 +34°C° 0 mm 4 mps 754 mmHg 14%
    17:00 +33°C° 0 mm 4 mps 754 mmHg 14%
    18:00 +29°C° 0 mm 4 mps 754 mmHg 19%
    19:00 +25°C° 0 mm 3 mps 755 mmHg 23%
    20:00 +21°C° 0 mm 3 mps 755 mmHg 28%
    21:00 +20°C° 0 mm 3 mps 755 mmHg 30%
    22:00 +19°C° 0 mm 2 mps 755 mmHg 33%
    23:00 +18°C° 0 mm 2 mps 756 mmHg 35%

    Tomorrow, 7 December, Wednesday

    Time Temperature Precipitation Wind Pressure Humidity
    00:00 +18°C° 0 mm 2 mps 755 mmHg 41%
    01:00 +17°C° 0 mm 2 mps 755 mmHg 47%
    02:00 +17°C° 0 mm 2 mps 755 mmHg 53%
    03:00 +17°C° 0 mm 2 mps 755 mmHg 59%
    04:00 +17°C° 0 mm 2 mps 756 mmHg 66%
    05:00 +17°C° 0 mm 2 mps 756 mmHg 72%
    06:00 +21°C° 0 mm 2 mps 756 mmHg 60%
    07:00 +25°C° 0 mm 1 mps 756 mmHg 48%
    08:00 +29°C° 0 mm 1 mps 757 mmHg 35%
    09:00 +31°C° 0 mm 1 mps 756 mmHg 29%
    10:00 +33°C° 0 mm 1 mps 756 mmHg 23%
    11:00 +34°C° 0 mm 1 mps 756 mmHg 17%
    12:00 +36°C° 0 mm 2 mps 755 mmHg 16%
    13:00 +37°C° 0 mm 3 mps 755 mmHg 16%
    14:00 +37°C° 0 mm 3 mps 754 mmHg 15%
    15:00 +37°C° 0 mm 3 mps 754 mmHg 16%
    16:00 +36°C° 0 mm 4 mps 754 mmHg 17%
    17:00 +35°C° 0 mm 4 mps 753 mmHg 18%
    18:00 +32°C° 0 mm 4 mps 754 mmHg 26%
    19:00 +28°C° 0 mm 4 mps 754 mmHg 34%
    20:00 +25°C° 0 mm 3 mps 754 mmHg 42%
    21:00 +23°C° 0 mm 4 mps 755 mmHg 47%
    22:00 +22°C° 0 mm 4 mps 756 mmHg 52%
    23:00 +21°C° 0 mm 4 mps 756 mmHg 57%

    Day after tomorrow, 8 December, Thursday

    Time Temperature Precipitation Wind Pressure Humidity
    00:00 +20°C° 0 mm 6 mps 757 mmHg 59%
    01:00 +18°C° 0 mm 8 mps 757 mmHg 62%
    02:00 +17°C° 0 mm 10 mps 758 mmHg 64%
    03:00 +16°C° 0 mm 9 mps 759 mmHg 66%
    04:00 +15°C° 0 mm 9 mps 759 mmHg 68%
    05:00 +15°C° 0 mm 8 mps 760 mmHg 71%
    06:00 +16°C° 0 mm 8 mps 760 mmHg 61%
    07:00 +17°C° 0 mm 8 mps 761 mmHg 51%
    08:00 +20°C° 0 mm 8 mps 761 mmHg 41%
    09:00 +22°C° 0 mm 7 mps 761 mmHg 36%
    10:00 +24°C° 0 mm 7 mps 760 mmHg 30%
    11:00 +27°C° 0 mm 7 mps 760 mmHg 24%
    12:00 +28°C° 0 mm 6 mps 760 mmHg 22%
    13:00 +29°C° 0 mm 6 mps 759 mmHg 20%
    14:00 +30°C° 0 mm 6 mps 758 mmHg 18%
    15:00 +29°C° 0 mm 6 mps 758 mmHg 19%
    16:00 +29°C° 0 mm 6 mps 758 mmHg 20%
    17:00 +28°C° 0 mm 6 mps 758 mmHg 21%
    18:00 +26°C° 0 mm 7 mps 759 mmHg 32%
    19:00 +22°C° 0 mm 7 mps 760 mmHg 43%
    20:00 +18°C° 0 mm 7 mps 760 mmHg 54%
    21:00 +17°C° 0 mm 6 mps 761 mmHg 60%
    22:00 +16°C° 0 mm 6 mps 761 mmHg 66%
    23:00 +16°C° 0 mm 5 mps 761 mmHg 71%

    9 December, Friday

    Time Temperature Precipitation Wind Pressure Humidity
    00:00 +15°C° 0 mm 5 mps 761 mmHg 74%
    01:00 +14°C° 0 mm 4 mps 760 mmHg 76%
    02:00 +14°C° 0 mm 4 mps 760 mmHg 79%
    03:00 +13°C° 0 mm 4 mps 760 mmHg 81%
    04:00 +13°C° 0 mm 4 mps 760 mmHg 82%
    05:00 +13°C° 0 mm 4 mps 760 mmHg 84%
    06:00 +17°C° 0 mm 4 mps 760 mmHg 71%
    07:00 +20°C° 0 mm 4 mps 760 mmHg 58%
    08:00 +22°C° 0 mm 5 mps 760 mmHg 45%
    09:00 +25°C° 0 mm 4 mps 760 mmHg 38%
    10:00 +27°C° 0 mm 4 mps 760 mmHg 30%
    11:00 +29°C° 0 mm 4 mps 759 mmHg 22%
    12:00 +30°C° 0 mm 3 mps 758 mmHg 19%
    13:00 +31°C° 0 mm 3 mps 757 mmHg 16%
    14:00 +33°C° 0 mm 3 mps 757 mmHg 13%
    15:00 +33°C° 0 mm 3 mps 756 mmHg 13%
    16:00 +33°C° 0 mm 4 mps 755 mmHg 13%
    17:00 +33°C° 0 mm 4 mps 755 mmHg 14%
    18:00 +29°C° 0 mm 4 mps 755 mmHg 20%
    19:00 +26°C° 0 mm 4 mps 755 mmHg 26%
    20:00 +22°C° 0 mm 5 mps 755 mmHg 33%
    21:00 +22°C° 0 mm 6 mps 755 mmHg 35%
    22:00 +22°C° 0 mm 7 mps 755 mmHg 38%
    23:00 +22°C° 0 mm 8 mps 755 mmHg 41%

    10 December, Saturday

    Time Temperature Precipitation Wind Pressure Humidity
    00:00 +22°C° 0 mm 8 mps 755 mmHg 41%
    01:00 +22°C° 0 mm 8 mps 755 mmHg 42%
    02:00 +21°C° 0 mm 8 mps 754 mmHg 42%
    03:00 +21°C° 0 mm 7 mps 755 mmHg 43%
    04:00 +20°C° 0 mm 7 mps 755 mmHg 43%
    05:00 +20°C° 0 mm 7 mps 755 mmHg 44%
    06:00 +23°C° 0 mm 8 mps 755 mmHg 38%
    07:00 +26°C° 0 mm 8 mps 755 mmHg 32%
    08:00 +29°C° 0 mm 8 mps 755 mmHg 25%
    09:00 +33°C° 0 mm 8 mps 754 mmHg 23%
    10:00 +37°C° 0 mm 8 mps 754 mmHg 20%
    11:00 +40°C° 0 mm 8 mps 753 mmHg 17%
    12:00 +41°C° 0 mm 8 mps 752 mmHg 15%
    13:00 +43°C° 0 mm 8 mps 751 mmHg 14%
    14:00 +44°C° 0 mm 8 mps 750 mmHg 12%
    15:00 +44°C° 0 mm 8 mps 750 mmHg 12%
    16:00 +43°C° 0 mm 8 mps 749 mmHg 12%
    17:00 +43°C° 0 mm 8 mps 748 mmHg 11%
    18:00 +39°C° 0 mm 7 mps 749 mmHg 13%
    19:00 +35°C° 0 mm 6 mps 749 mmHg 15%
    20:00 +32°C° 0 mm 5 mps 749 mmHg 17%
    21:00 +30°C° 0 mm 5 mps 750 mmHg 20%
    22:00 +29°C° 0 mm 5 mps 750 mmHg 23%
    23:00 +28°C° 0 mm 5 mps 750 mmHg 26%

    11 December, Sunday

    Time Temperature Precipitation Wind Pressure Humidity
    00:00 +27°C° 0 mm 5 mps 750 mmHg 27%
    01:00 +27°C° 0 mm 5 mps 750 mmHg 29%
    02:00 +27°C° 0 mm 5 mps 750 mmHg 30%
    03:00 +26°C° 0 mm 6 mps 751 mmHg 33%
    04:00 +24°C° 0 mm 6 mps 751 mmHg 36%
    05:00 +24°C° 0 mm 6 mps 752 mmHg 38%
    06:00 +26°C° 0 mm 6 mps 753 mmHg 34%
    07:00 +28°C° 0 mm 6 mps 753 mmHg 31%
    08:00 +29°C° 0 mm 5 mps 754 mmHg 27%
    09:00 +32°C° 0 mm 5 mps 754 mmHg 24%
    10:00 +33°C° 0 mm 4 mps 754 mmHg 21%
    11:00 +34°C° 0 mm 4 mps 754 mmHg 18%
    12:00 +35°C° 0 mm 4 mps 754 mmHg 16%
    13:00 +36°C° 0 mm 4 mps 753 mmHg 15%
    14:00 +37°C° 0 mm 4 mps 753 mmHg 14%
    15:00 +36°C° 0 mm 4 mps 752 mmHg 15%
    16:00 +36°C° 0 mm 4 mps 752 mmHg 16%
    17:00 +35°C° 0 mm 5 mps 752 mmHg 17%
    18:00 +32°C° 0 mm 5 mps 752 mmHg 26%
    19:00 +27°C° 0 mm 6 mps 752 mmHg 35%
    20:00 +23°C° 0 mm 7 mps 752 mmHg 44%
    21:00 +22°C° 0 mm 7 mps 752 mmHg 51%
    22:00 +22°C° 0 mm 7 mps 753 mmHg 58%
    23:00 +21°C° 0 mm 7 mps 753 mmHg 65%
    Show more